ELY372 LPPT-LLBG

Flight info

Callsign ELY372
Flight time N/A
Altitude 32000
Route ORVED DCT RODAP DCT UREDI DCT DIPOL DCT RBO DCT PINAR DCT SEGRE DCT BRITO DCT PISUS DCT PONEN DCT SEROX DCT VILAR DCT KARES/N0453F340 DCT BISES DCT BCN/N0451F330 DCT DIPES/N0453F340 N725 OSPOK/N0449F330 DCT NOLVI DCT ORKUM/N0449F340 DCT ELSAG DCT ALG/N0450F330 DCT QUENN DCT LODPA/N0451F350 DCT CRN DCT ADREN DCT TOMGI DCT RUTOM DCT TRL DCT SOTIX DCT VAXOS UN134 VANZA DCT PIKOG L609 ZUKKO
Aircraft B739/M-SDE2E3FGHIRWXY/LB1

Departure

Time 2026-05-04 19:18
Airport Lisbon Humberto Delgado Airport (LPPT)

Arrival

Time N/A
Airport Ben Gurion International Airport (LLBG)
Time Latitude Longitude Altitude Speed Heading
2026-05-04 18:59 38.76937 -9.13070 336 ft 0 kts 78°
2026-05-04 19:04 38.76936 -9.13070 336 ft 0 kts 78°
2026-05-04 19:05 38.76936 -9.13071 336 ft 0 kts 78°
2026-05-04 19:11 38.76932 -9.13098 331 ft 4 kts 78°
2026-05-04 19:11 38.76929 -9.13130 337 ft 4 kts 108°
2026-05-04 19:12 38.76943 -9.13154 337 ft 4 kts 159°
2026-05-04 19:12 38.76953 -9.13159 337 ft 0 kts 168°
2026-05-04 19:13 38.76953 -9.13158 335 ft 1 kts 168°
2026-05-04 19:14 38.76906 -9.13146 338 ft 11 kts 169°
2026-05-04 19:14 38.76824 -9.13129 336 ft 13 kts 179°
2026-05-04 19:14 38.76772 -9.13207 339 ft 12 kts 249°
2026-05-04 19:14 38.76753 -9.13320 339 ft 15 kts 260°
2026-05-04 19:15 38.76692 -9.13432 343 ft 16 kts 218°
2026-05-04 19:15 38.76641 -9.13559 352 ft 17 kts 255°
2026-05-04 19:15 38.76617 -9.13703 345 ft 16 kts 258°
2026-05-04 19:15 38.76596 -9.13842 347 ft 16 kts 259°
2026-05-04 19:16 38.76568 -9.13974 353 ft 15 kts 246°
2026-05-04 19:16 38.76525 -9.14077 349 ft 16 kts 242°
2026-05-04 19:16 38.76513 -9.14220 338 ft 18 kts 290°
2026-05-04 19:16 38.76547 -9.14331 332 ft 22 kts 294°
2026-05-04 19:17 38.76723 -9.14348 335 ft 44 kts 23°
2026-05-04 19:17 38.76998 -9.14199 352 ft 85 kts 22°
2026-05-04 19:17 38.77716 -9.13816 364 ft 137 kts 23°
2026-05-04 19:17 38.78735 -9.13263 392 ft 176 kts 19°
2026-05-04 19:18 38.79880 -9.12613 879 ft 179 kts 20°
2026-05-04 19:18 38.81000 -9.11882 1483 ft 186 kts 27°
2026-05-04 19:18 38.82067 -9.10938 2121 ft 183 kts 24°
2026-05-04 19:18 38.83288 -9.10293 2377 ft 199 kts 17°
2026-05-04 19:19 38.84586 -9.09463 2544 ft 218 kts 26°
2026-05-04 19:19 38.85909 -9.08425 2905 ft 227 kts 27°
2026-05-04 19:19 38.87306 -9.07326 3112 ft 245 kts 27°
2026-05-04 19:19 38.88773 -9.06115 3539 ft 257 kts 36°
2026-05-04 19:20 38.89995 -9.04410 4267 ft 262 kts 51°
2026-05-04 19:20 38.90916 -9.02365 4937 ft 269 kts 60°
2026-05-04 19:20 38.91723 -9.00175 5561 ft 273 kts 62°
2026-05-04 19:20 38.92520 -8.97935 6181 ft 278 kts 62°
2026-05-04 19:21 38.93334 -8.95661 6803 ft 282 kts 63°
2026-05-04 19:21 38.94161 -8.93372 7457 ft 284 kts 62°
2026-05-04 19:21 38.95012 -8.91043 7989 ft 291 kts 62°
2026-05-04 19:21 38.95877 -8.88693 8653 ft 292 kts 62°
2026-05-04 19:22 38.96752 -8.86323 9299 ft 297 kts 62°
2026-05-04 19:22 38.97642 -8.83920 9938 ft 298 kts 61°
2026-05-04 19:22 38.98545 -8.81489 10312 ft 306 kts 62°
2026-05-04 19:22 38.99479 -8.78984 10424 ft 323 kts 62°
2026-05-04 19:23 39.00471 -8.76317 10558 ft 340 kts 62°
2026-05-04 19:23 39.01517 -8.73498 10814 ft 358 kts 62°
2026-05-04 19:23 39.02603 -8.70562 11364 ft 368 kts 62°
2026-05-04 19:23 39.03709 -8.67567 12077 ft 373 kts 62°
2026-05-04 19:24 39.04827 -8.64539 12809 ft 376 kts 62°
2026-05-04 19:24 39.05957 -8.61477 13388 ft 381 kts 62°
2026-05-04 19:24 39.07102 -8.58378 13903 ft 387 kts 62°
2026-05-04 19:24 39.08264 -8.55229 14402 ft 391 kts 62°
2026-05-04 19:25 39.09433 -8.52056 14929 ft 394 kts 62°
2026-05-04 19:25 39.10614 -8.48847 15437 ft 398 kts 62°
2026-05-04 19:25 39.11802 -8.45615 15920 ft 402 kts 62°
2026-05-04 19:25 39.13004 -8.42342 16404 ft 406 kts 62°
2026-05-04 19:26 39.14210 -8.39052 16891 ft 409 kts 62°
2026-05-04 19:26 39.15029 -8.36817 17187 ft 412 kts 62°
2026-05-04 19:26 39.16240 -8.33510 17636 ft 415 kts 62°
2026-05-04 19:26 39.17480 -8.30121 18028 ft 420 kts 62°
2026-05-04 19:27 39.18728 -8.26703 18434 ft 424 kts 62°
2026-05-04 19:27 39.19987 -8.23249 18812 ft 427 kts 62°
2026-05-04 19:27 39.21251 -8.19778 19165 ft 430 kts 62°
2026-05-04 19:27 39.22528 -8.16271 19504 ft 433 kts 62°
2026-05-04 19:28 39.23811 -8.12741 19842 ft 436 kts 62°
2026-05-04 19:28 39.25101 -8.09185 20190 ft 439 kts 62°
2026-05-04 19:28 39.26397 -8.05611 20519 ft 442 kts 62°
2026-05-04 19:28 39.27704 -8.02002 20823 ft 445 kts 62°
2026-05-04 19:29 39.28919 -7.98296 21129 ft 450 kts 66°
2026-05-04 19:29 39.30016 -7.94501 21446 ft 453 kts 68°
2026-05-04 19:29 39.31051 -7.90763 21737 ft 456 kts 68°
2026-05-04 19:29 39.32121 -7.86895 22067 ft 458 kts 68°
2026-05-04 19:30 39.33207 -7.83021 22382 ft 460 kts 67°
2026-05-04 19:30 39.34315 -7.79126 22724 ft 464 kts 67°
2026-05-04 19:30 39.35439 -7.75201 23089 ft 467 kts 67°
2026-05-04 19:30 39.36571 -7.71257 23445 ft 470 kts 66°
2026-05-04 19:31 39.37710 -7.67279 23761 ft 473 kts 67°
2026-05-04 19:31 39.38927 -7.63321 24043 ft 474 kts 61°
2026-05-04 19:31 39.40428 -7.59526 24340 ft 474 kts 57°
2026-05-04 19:31 39.42070 -7.55819 24633 ft 476 kts 55°
2026-05-04 19:32 39.43756 -7.52122 24896 ft 479 kts 55°
2026-05-04 19:32 39.45443 -7.48388 25173 ft 482 kts 56°
2026-05-04 19:32 39.47112 -7.44613 25453 ft 485 kts 56°
2026-05-04 19:32 39.48765 -7.40799 25727 ft 488 kts 57°
2026-05-04 19:33 39.50317 -7.37173 25973 ft 490 kts 57°
2026-05-04 19:33 39.51964 -7.33296 26237 ft 493 kts 57°
2026-05-04 19:33 39.53544 -7.29566 26483 ft 495 kts 57°
2026-05-04 19:33 39.55223 -7.25603 26737 ft 498 kts 57°
2026-05-04 19:34 39.56870 -7.21715 27025 ft 500 kts 57°
2026-05-04 19:34 39.58544 -7.17760 27313 ft 503 kts 57°
2026-05-04 19:34 39.60233 -7.13769 27531 ft 506 kts 57°
2026-05-04 19:34 39.61930 -7.09753 27770 ft 508 kts 57°
2026-05-04 19:35 39.63610 -7.05710 28024 ft 512 kts 59°
2026-05-04 19:35 39.65140 -7.01519 28254 ft 515 kts 62°
2026-05-04 19:35 39.66591 -6.97251 28475 ft 518 kts 63°
2026-05-04 19:35 39.68014 -6.92945 28699 ft 521 kts 63°
2026-05-04 19:36 39.69444 -6.88607 28960 ft 523 kts 63°
2026-05-04 19:36 39.70884 -6.84274 29297 ft 522 kts 63°
2026-05-04 19:36 39.72322 -6.79979 29659 ft 521 kts 63°
2026-05-04 19:36 39.73657 -6.76021 29958 ft 521 kts 63°
2026-05-04 19:37 39.74900 -6.72342 30177 ft 522 kts 63°
2026-05-04 19:37 39.76273 -6.68279 30382 ft 523 kts 63°
2026-05-04 19:37 39.77727 -6.63975 30649 ft 522 kts 63°
2026-05-04 19:37 39.79173 -6.59682 30935 ft 521 kts 63°
2026-05-04 19:38 39.80621 -6.55374 31219 ft 520 kts 63°
2026-05-04 19:38 39.82067 -6.51064 31466 ft 520 kts 63°
2026-05-04 19:38 39.83511 -6.46752 31700 ft 519 kts 63°
2026-05-04 19:38 39.84950 -6.42447 31948 ft 518 kts 63°
2026-05-04 19:39 39.86389 -6.38140 32042 ft 521 kts 63°
2026-05-04 19:39 39.89229 -6.29627 32018 ft 526 kts 63°
2026-05-04 19:40 39.92081 -6.21046 32006 ft 530 kts 63°
2026-05-04 19:40 39.94910 -6.12504 32000 ft 533 kts 64°
2026-05-04 19:41 39.97841 -6.03623 31996 ft 534 kts 64°
2026-05-04 19:41 40.00612 -5.95204 31989 ft 534 kts 64°
2026-05-04 19:42 40.03500 -5.86402 31987 ft 533 kts 64°
2026-05-04 19:42 40.06231 -5.78055 31989 ft 532 kts 64°
2026-05-04 19:43 40.09128 -5.69172 31996 ft 530 kts 64°
2026-05-04 19:43 40.12002 -5.60331 32032 ft 528 kts 65°
2026-05-04 19:44 40.14868 -5.51488 32001 ft 528 kts 65°
2026-05-04 19:44 40.17722 -5.42655 31982 ft 526 kts 65°
2026-05-04 19:45 40.20556 -5.33852 32007 ft 524 kts 65°
2026-05-04 19:45 40.23378 -5.25061 32000 ft 524 kts 65°
2026-05-04 19:46 40.26199 -5.16245 32005 ft 525 kts 65°
2026-05-04 19:46 40.29019 -5.07404 32004 ft 526 kts 65°
2026-05-04 19:47 40.31813 -4.98608 32008 ft 528 kts 65°
2026-05-04 19:47 40.34631 -4.89718 31989 ft 528 kts 66°
2026-05-04 19:48 40.37448 -4.80805 31976 ft 529 kts 66°
2026-05-04 19:48 40.40256 -4.71888 31992 ft 529 kts 66°
2026-05-04 19:49 40.43060 -4.62955 31997 ft 529 kts 66°
2026-05-04 19:49 40.45857 -4.54040 31979 ft 528 kts 66°
2026-05-04 19:50 40.48645 -4.45128 31989 ft 526 kts 66°
2026-05-04 19:50 40.51414 -4.36245 31997 ft 525 kts 66°
2026-05-04 19:51 40.54167 -4.27382 32000 ft 523 kts 66°
2026-05-04 19:51 40.56910 -4.18520 31995 ft 523 kts 67°
2026-05-04 19:52 40.59644 -4.09662 32003 ft 522 kts 67°
2026-05-04 19:52 40.62366 -4.00806 31995 ft 522 kts 67°
2026-05-04 19:53 40.65082 -3.91942 32004 ft 522 kts 67°
2026-05-04 19:53 40.67799 -3.83054 31993 ft 524 kts 67°
2026-05-04 19:54 40.70511 -3.74147 31992 ft 524 kts 67°
2026-05-04 19:54 40.73220 -3.65220 31981 ft 525 kts 67°
2026-05-04 19:55 40.75923 -3.56278 31989 ft 525 kts 67°
2026-05-04 19:55 40.78604 -3.47387 31996 ft 525 kts 68°
2026-05-04 19:56 40.81296 -3.38424 31985 ft 526 kts 68°
2026-05-04 19:56 40.83984 -3.29449 31988 ft 525 kts 68°
2026-05-04 19:57 40.86433 -3.20364 31997 ft 525 kts 75°
2026-05-04 19:57 40.88226 -3.11017 31990 ft 525 kts 77°
2026-05-04 19:58 40.89944 -3.01666 31978 ft 523 kts 77°
2026-05-04 19:58 40.91728 -2.92362 31991 ft 521 kts 76°
2026-05-04 19:59 40.93533 -2.83093 31984 ft 520 kts 76°
2026-05-04 19:59 40.95324 -2.73845 31988 ft 518 kts 76°
2026-05-04 20:00 40.97039 -2.64928 31976 ft 518 kts 76°
2026-05-04 20:00 40.98809 -2.55704 31993 ft 517 kts 76°
2026-05-04 20:01 41.00591 -2.46490 32000 ft 516 kts 76°
2026-05-04 20:01 41.02364 -2.37278 31996 ft 516 kts 76°
2026-05-04 20:02 41.04057 -2.28332 31985 ft 517 kts 77°
2026-05-04 20:02 41.05788 -2.19101 32000 ft 516 kts 77°
2026-05-04 20:03 41.07518 -2.09855 31989 ft 517 kts 77°
2026-05-04 20:03 41.09243 -2.00619 31995 ft 516 kts 77°
2026-05-04 20:04 41.10870 -1.91896 31989 ft 516 kts 77°
2026-05-04 20:04 41.12582 -1.82683 32004 ft 515 kts 77°
2026-05-04 20:05 41.14202 -1.73913 31994 ft 515 kts 77°
2026-05-04 20:05 41.15898 -1.64692 31992 ft 514 kts 77°
2026-05-04 20:06 41.17515 -1.55859 32005 ft 513 kts 77°
2026-05-04 20:06 41.19165 -1.46803 31996 ft 512 kts 77°
2026-05-04 20:07 41.20800 -1.37760 31986 ft 510 kts 77°
2026-05-04 20:07 41.22165 -1.30156 32005 ft 509 kts 77°
2026-05-04 20:08 41.24072 -1.19479 31998 ft 508 kts 77°
2026-05-04 20:08 41.25421 -1.11894 31984 ft 507 kts 78°
2026-05-04 20:09 41.27029 -1.02813 31992 ft 506 kts 78°
2026-05-04 20:09 41.28596 -0.93921 31989 ft 505 kts 78°
2026-05-04 20:10 41.30180 -0.84887 31989 ft 505 kts 78°
2026-05-04 20:10 41.31772 -0.75768 31951 ft 506 kts 78°
2026-05-04 20:11 41.33354 -0.66656 31971 ft 505 kts 78°
2026-05-04 20:11 41.34927 -0.57538 31994 ft 505 kts 79°
2026-05-04 20:12 41.35517 -0.48344 31984 ft 500 kts 94°
2026-05-04 20:12 41.35362 -0.39099 31969 ft 499 kts 94°
2026-05-04 20:13 41.35230 -0.30089 31956 ft 498 kts 94°
2026-05-04 20:13 41.35142 -0.20875 31958 ft 497 kts 94°
2026-05-04 20:14 41.35065 -0.11728 31966 ft 497 kts 94°
2026-05-04 20:14 41.34977 -0.02542 31961 ft 496 kts 94°
2026-05-04 20:15 41.34879 0.06628 31962 ft 496 kts 94°
2026-05-04 20:15 41.34773 0.15819 32167 ft 501 kts 94°
2026-05-04 20:15 41.34718 0.20461 32311 ft 503 kts 94°
2026-05-04 20:16 41.34659 0.25135 32413 ft 506 kts 94°
2026-05-04 20:16 41.34596 0.29810 32636 ft 505 kts 94°
2026-05-04 20:16 41.34532 0.34475 32907 ft 504 kts 94°
2026-05-04 20:16 41.34466 0.39126 33153 ft 502 kts 94°
2026-05-04 20:17 41.34397 0.43770 33345 ft 502 kts 94°
2026-05-04 20:17 41.34327 0.48424 33504 ft 503 kts 94°
2026-05-04 20:17 41.34256 0.53078 33690 ft 503 kts 94°
2026-05-04 20:17 41.34183 0.57731 33899 ft 501 kts 94°
2026-05-04 20:18 41.34107 0.62365 33945 ft 502 kts 95°
2026-05-04 20:18 41.33945 0.71626 33952 ft 504 kts 95°
2026-05-04 20:19 41.33777 0.80997 33944 ft 502 kts 95°
2026-05-04 20:19 41.33604 0.90286 33942 ft 501 kts 95°
2026-05-04 20:20 41.33422 0.99550 33956 ft 500 kts 95°
2026-05-04 20:20 41.33235 1.08799 33960 ft 500 kts 95°
2026-05-04 20:21 41.33041 1.18032 33933 ft 499 kts 95°
2026-05-04 20:21 41.32754 1.31779 33962 ft 498 kts 95°
2026-05-04 20:22 41.32554 1.40985 33960 ft 498 kts 95°
2026-05-04 20:22 41.32345 1.50204 33959 ft 499 kts 96°
2026-05-04 20:23 41.32129 1.59431 33944 ft 499 kts 96°
2026-05-04 20:23 41.31907 1.68657 33943 ft 499 kts 96°
2026-05-04 20:24 41.31660 1.77874 33954 ft 499 kts 96°
2026-05-04 20:24 41.31398 1.87089 33951 ft 499 kts 96°
2026-05-04 20:25 41.31181 1.94380 33947 ft 498 kts 96°
2026-05-04 20:25 41.30984 2.01372 33967 ft 497 kts 96°
2026-05-04 20:26 41.30789 2.07918 33965 ft 496 kts 96°
2026-05-04 20:26 41.30646 2.13405 33789 ft 503 kts 82°
2026-05-04 20:27 41.31642 2.20005 33916 ft 497 kts 91°
2026-05-04 20:27 41.31527 2.23239 33915 ft 488 kts 107°
2026-05-04 20:27 41.30894 2.26121 33971 ft 476 kts 120°
2026-05-04 20:28 41.29238 2.30438 34060 ft 469 kts 125°
2026-05-04 20:28 41.27496 2.35258 34055 ft 478 kts 117°
2026-05-04 20:29 41.26033 2.40865 33890 ft 488 kts 112°
2026-05-04 20:29 41.24636 2.47634 33933 ft 491 kts 109°
2026-05-04 20:30 41.23422 2.54429 33934 ft 493 kts 108°
2026-05-04 20:30 41.22091 2.62399 33936 ft 494 kts 108°
2026-05-04 20:31 41.20748 2.70497 33913 ft 494 kts 108°
2026-05-04 20:31 41.19280 2.79223 33927 ft 493 kts 108°
2026-05-04 20:32 41.17788 2.87993 33937 ft 492 kts 108°
2026-05-04 20:32 41.16290 2.96736 33931 ft 491 kts 108°
2026-05-04 20:33 41.14770 3.05564 33920 ft 491 kts 108°
2026-05-04 20:33 41.13244 3.14382 33931 ft 490 kts 109°
2026-05-04 20:34 41.11715 3.23179 33945 ft 489 kts 109°
2026-05-04 20:34 41.10207 3.31811 33942 ft 489 kts 109°
2026-05-04 20:35 41.08676 3.40536 33944 ft 489 kts 109°
2026-05-04 20:35 41.07140 3.49260 33937 ft 489 kts 109°
2026-05-04 20:36 41.05581 3.58037 33946 ft 490 kts 109°
2026-05-04 20:36 41.04006 3.66795 33956 ft 494 kts 109°
2026-05-04 20:37 41.02409 3.75666 33947 ft 495 kts 109°
2026-05-04 20:37 41.00831 3.84397 33915 ft 493 kts 109°
2026-05-04 20:38 40.99277 3.92971 33945 ft 492 kts 109°
2026-05-04 20:38 40.97687 4.01705 33952 ft 492 kts 109°
2026-05-04 20:39 40.96102 4.10376 33947 ft 493 kts 109°
2026-05-04 20:39 40.94493 4.19141 33949 ft 494 kts 109°
2026-05-04 20:40 40.92897 4.27797 33941 ft 495 kts 110°
2026-05-04 20:40 40.91255 4.36664 33958 ft 497 kts 110°
2026-05-04 20:41 40.89600 4.45561 33960 ft 500 kts 110°
2026-05-04 20:41 40.87949 4.54500 33954 ft 502 kts 109°
2026-05-04 20:42 40.86300 4.63466 33955 ft 502 kts 110°
2026-05-04 20:42 40.84978 4.72563 33966 ft 508 kts 103°
2026-05-04 20:43 40.84184 4.81863 33946 ft 510 kts 101°
2026-05-04 20:43 40.83415 4.91173 33955 ft 510 kts 102°
2026-05-04 20:44 40.82576 5.00460 33947 ft 509 kts 102°
2026-05-04 20:44 40.81703 5.09667 33953 ft 509 kts 103°
2026-05-04 20:45 40.80812 5.18922 33966 ft 508 kts 103°
2026-05-04 20:45 40.79920 5.28170 33965 ft 508 kts 103°
2026-05-04 20:46 40.79023 5.37420 33942 ft 508 kts 103°
2026-05-04 20:46 40.78116 5.46673 33955 ft 509 kts 103°
2026-05-04 20:47 40.77200 5.55946 33960 ft 511 kts 103°
2026-05-04 20:47 40.76272 5.65256 33984 ft 513 kts 103°
2026-05-04 20:48 40.75335 5.74602 33967 ft 515 kts 103°
2026-05-04 20:48 40.74387 5.83967 33978 ft 516 kts 103°
2026-05-04 20:49 40.73432 5.93344 33977 ft 516 kts 103°
2026-05-04 20:49 40.72464 6.02711 33979 ft 515 kts 103°
2026-05-04 20:50 40.71488 6.12057 33967 ft 514 kts 102°
2026-05-04 20:50 40.70510 6.21359 33976 ft 512 kts 102°
2026-05-04 20:51 40.69528 6.30638 33991 ft 510 kts 103°
2026-05-04 20:51 40.68540 6.39877 33992 ft 509 kts 103°
2026-05-04 20:52 40.67550 6.49093 33977 ft 507 kts 102°
2026-05-04 20:52 40.66555 6.58281 33993 ft 506 kts 102°
2026-05-04 20:53 40.65556 6.67434 33993 ft 504 kts 102°
2026-05-04 20:53 40.64549 6.76574 33995 ft 504 kts 103°
2026-05-04 20:54 40.63704 6.84165 34000 ft 504 kts 102°
2026-05-04 20:54 40.62689 6.93312 33993 ft 506 kts 102°
2026-05-04 20:55 40.61662 7.02465 34009 ft 505 kts 102°
2026-05-04 20:55 40.60625 7.11618 34008 ft 505 kts 102°
2026-05-04 20:56 40.59584 7.20754 34010 ft 505 kts 102°
2026-05-04 20:56 40.58534 7.29896 34018 ft 506 kts 102°
2026-05-04 20:57 40.57477 7.39047 34018 ft 506 kts 103°
2026-05-04 20:57 40.56546 7.48227 34004 ft 509 kts 95°
2026-05-04 20:58 40.57048 7.57548 34022 ft 512 kts 85°
2026-05-04 20:58 40.57962 7.66837 34014 ft 512 kts 84°
2026-05-04 20:59 40.58805 7.76129 34014 ft 511 kts 85°
2026-05-04 20:59 40.59582 7.85356 34022 ft 510 kts 85°
2026-05-04 21:00 40.60359 7.94690 34031 ft 509 kts 85°
2026-05-04 21:00 40.61122 8.03875 34037 ft 508 kts 85°
2026-05-04 21:01 40.61883 8.13124 34050 ft 508 kts 85°
2026-05-04 21:01 40.62525 8.22368 34042 ft 506 kts 92°
2026-05-04 21:02 40.61611 8.31438 34054 ft 497 kts 108°
2026-05-04 21:02 40.59847 8.40228 34035 ft 496 kts 108°
2026-05-04 21:03 40.58094 8.49016 34027 ft 497 kts 108°
2026-05-04 21:03 40.56382 8.57825 34037 ft 497 kts 108°
2026-05-04 21:04 40.54674 8.66645 34053 ft 498 kts 108°
2026-05-04 21:04 40.52954 8.75487 34050 ft 500 kts 108°
2026-05-04 21:05 40.51227 8.84333 34039 ft 498 kts 108°
2026-05-04 21:05 40.50373 8.88701 33810 ft 491 kts 108°
2026-05-04 21:05 40.49522 8.93033 33548 ft 492 kts 108°
2026-05-04 21:06 40.48657 8.97412 33300 ft 495 kts 108°
2026-05-04 21:06 40.47785 9.01800 33097 ft 499 kts 108°
2026-05-04 21:06 40.46040 9.10624 33054 ft 499 kts 108°
2026-05-04 21:07 40.44292 9.19457 33050 ft 498 kts 108°
2026-05-04 21:07 40.42545 9.28168 33058 ft 495 kts 108°
2026-05-04 21:08 40.40792 9.36894 33049 ft 493 kts 108°
2026-05-04 21:08 40.39041 9.45593 33049 ft 493 kts 108°
2026-05-04 21:09 40.37278 9.54322 33060 ft 491 kts 108°
2026-05-04 21:09 40.35530 9.62933 33065 ft 492 kts 108°
2026-05-04 21:10 40.33757 9.71620 33061 ft 494 kts 108°
2026-05-04 21:10 40.31971 9.80343 33068 ft 497 kts 108°
2026-05-04 21:11 40.30269 9.88620 33065 ft 498 kts 107°
2026-05-04 21:11 40.28556 9.96957 33060 ft 499 kts 108°
2026-05-04 21:12 40.26732 10.05732 33058 ft 499 kts 108°
2026-05-04 21:12 40.24902 10.14498 33068 ft 499 kts 108°
2026-05-04 21:13 40.23098 10.23122 33059 ft 499 kts 108°
2026-05-04 21:13 40.21262 10.31870 33067 ft 498 kts 108°
2026-05-04 21:14 40.19423 10.40601 33072 ft 497 kts 108°
2026-05-04 21:14 40.17581 10.49307 33073 ft 497 kts 108°
2026-05-04 21:15 40.15839 10.58023 33065 ft 497 kts 104°
2026-05-04 21:15 40.14554 10.66670 33080 ft 497 kts 102°
2026-05-04 21:16 40.13349 10.75406 33092 ft 501 kts 102°
2026-05-04 21:16 40.12069 10.84340 33090 ft 505 kts 102°
2026-05-04 21:17 40.10770 10.93096 33084 ft 507 kts 102°
2026-05-04 21:17 40.09405 11.02151 33092 ft 508 kts 103°
2026-05-04 21:18 40.08041 11.11174 33091 ft 508 kts 103°
2026-05-04 21:18 40.07501 11.14738 33090 ft 508 kts 103°
2026-05-04 21:19 40.06140 11.23634 33086 ft 507 kts 103°
2026-05-04 21:19 40.04829 11.32178 33086 ft 506 kts 103°
2026-05-04 21:20 40.03458 11.41094 33096 ft 505 kts 103°
2026-05-04 21:20 40.02112 11.49802 33131 ft 504 kts 103°
2026-05-04 21:21 40.00721 11.58765 33125 ft 504 kts 103°
2026-05-04 21:21 39.99322 11.67698 33097 ft 504 kts 103°
2026-05-04 21:22 39.97908 11.76636 33127 ft 503 kts 103°
2026-05-04 21:22 39.96514 11.85460 33122 ft 503 kts 103°
2026-05-04 21:23 39.95101 11.94367 33116 ft 503 kts 103°
2026-05-04 21:23 39.93678 12.03293 33108 ft 503 kts 103°
2026-05-04 21:24 39.92245 12.12207 33113 ft 503 kts 103°
2026-05-04 21:24 39.90807 12.21119 33110 ft 503 kts 103°
2026-05-04 21:25 39.89364 12.30013 33115 ft 502 kts 103°
2026-05-04 21:25 39.87913 12.38910 33115 ft 502 kts 103°
2026-05-04 21:26 39.86454 12.47807 33132 ft 502 kts 103°
2026-05-04 21:26 39.84988 12.56696 33119 ft 503 kts 103°
2026-05-04 21:27 39.83515 12.65588 33135 ft 503 kts 103°
2026-05-04 21:27 39.82035 12.74482 33124 ft 503 kts 103°
2026-05-04 21:28 39.80550 12.83362 33128 ft 502 kts 103°
2026-05-04 21:28 39.79058 12.92241 33128 ft 502 kts 103°
2026-05-04 21:29 39.77570 13.01051 33135 ft 502 kts 103°
2026-05-04 21:29 39.76065 13.09917 33130 ft 502 kts 103°
2026-05-04 21:30 39.74552 13.18783 33126 ft 503 kts 103°
2026-05-04 21:30 39.73030 13.27654 33140 ft 503 kts 103°
2026-05-04 21:31 39.70736 13.40956 33131 ft 504 kts 103°
2026-05-04 21:32 39.69196 13.49832 33134 ft 504 kts 103°
2026-05-04 21:32 39.67646 13.58714 33142 ft 505 kts 103°
2026-05-04 21:33 39.66088 13.67609 33137 ft 505 kts 103°
2026-05-04 21:33 39.64647 13.75794 33139 ft 506 kts 103°
2026-05-04 21:34 39.63072 13.84699 33145 ft 507 kts 103°
2026-05-04 21:34 39.61487 13.93625 33378 ft 508 kts 103°
2026-05-04 21:34 39.60693 13.98078 33715 ft 505 kts 103°
2026-05-04 21:35 39.59902 14.02504 34035 ft 503 kts 103°
2026-05-04 21:35 39.59112 14.06914 34300 ft 502 kts 103°
2026-05-04 21:35 39.58322 14.11317 34492 ft 501 kts 103°
2026-05-04 21:35 39.57530 14.15716 34660 ft 501 kts 103°
2026-05-04 21:36 39.56737 14.20112 34857 ft 501 kts 103°
2026-05-04 21:36 39.55944 14.24496 35064 ft 499 kts 103°
2026-05-04 21:36 39.55151 14.28870 35136 ft 499 kts 103°
2026-05-04 21:37 39.53555 14.37648 35144 ft 501 kts 103°
2026-05-04 21:37 39.51951 14.46428 35144 ft 501 kts 103°
2026-05-04 21:38 39.50351 14.55140 35145 ft 501 kts 103°
2026-05-04 21:38 39.48736 14.63901 35144 ft 500 kts 103°
2026-05-04 21:39 39.47115 14.72646 35146 ft 499 kts 103°
2026-05-04 21:39 39.45490 14.81384 35144 ft 499 kts 103°
2026-05-04 21:40 39.43860 14.90113 35142 ft 499 kts 103°
2026-05-04 21:40 39.42222 14.98839 35141 ft 499 kts 102°
2026-05-04 21:41 39.40584 15.07529 35150 ft 499 kts 103°
2026-05-04 21:41 39.38930 15.16259 35146 ft 500 kts 103°
2026-05-04 21:42 39.37268 15.24989 35140 ft 500 kts 103°
2026-05-04 21:42 39.35884 15.32242 35145 ft 501 kts 102°
2026-05-04 21:43 39.34359 15.40197 35144 ft 502 kts 102°
2026-05-04 21:43 39.32675 15.48950 35145 ft 502 kts 102°
2026-05-04 21:44 39.31080 15.57191 35141 ft 503 kts 102°
2026-05-04 21:44 39.29424 15.65722 35158 ft 503 kts 102°
2026-05-04 21:45 39.27727 15.74424 35147 ft 503 kts 102°
2026-05-04 21:45 39.26015 15.83169 35141 ft 502 kts 102°
2026-05-04 21:46 39.24315 15.91818 35142 ft 501 kts 102°
2026-05-04 21:46 39.22585 16.00575 35152 ft 499 kts 102°
2026-05-04 21:47 39.20875 16.09191 35163 ft 499 kts 101°
2026-05-04 21:47 39.19141 16.17901 35159 ft 498 kts 101°
2026-05-04 21:48 39.17424 16.26497 35156 ft 498 kts 102°
2026-05-04 21:48 39.15682 16.35134 35191 ft 498 kts 102°
2026-05-04 21:49 39.13828 16.43750 35177 ft 500 kts 103°
2026-05-04 21:49 39.11927 16.52369 35156 ft 500 kts 103°
2026-05-04 21:50 39.10037 16.60983 35172 ft 500 kts 103°
2026-05-04 21:50 39.08152 16.69596 35150 ft 500 kts 103°
2026-05-04 21:51 39.06259 16.78212 35158 ft 500 kts 102°
2026-05-04 21:51 39.04366 16.86814 35151 ft 500 kts 102°
2026-05-04 21:52 39.02460 16.95432 35136 ft 501 kts 102°
2026-05-04 21:52 39.00547 17.04051 35127 ft 501 kts 102°
2026-05-04 21:53 38.98596 17.12665 35126 ft 503 kts 103°
2026-05-04 21:53 38.96526 17.21253 35128 ft 503 kts 104°
2026-05-04 21:54 38.94438 17.29832 35128 ft 504 kts 104°
2026-05-04 21:54 38.92392 17.38286 35134 ft 504 kts 104°
2026-05-04 21:55 38.90410 17.46478 35138 ft 505 kts 103°
2026-05-04 21:55 38.88319 17.55092 35139 ft 505 kts 103°
2026-05-04 21:56 38.86222 17.63698 35140 ft 505 kts 103°
2026-05-04 21:56 38.84117 17.72304 35137 ft 505 kts 103°
2026-05-04 21:57 38.82017 17.80858 35149 ft 506 kts 103°
2026-05-04 21:57 38.79901 17.89448 35142 ft 505 kts 103°
2026-05-04 21:58 38.77784 17.98020 35142 ft 504 kts 103°
2026-05-04 21:58 38.75665 18.06572 35144 ft 503 kts 103°
2026-05-04 21:59 38.73542 18.15113 35143 ft 503 kts 103°
2026-05-04 21:59 38.71413 18.23643 35149 ft 503 kts 103°
2026-05-04 22:00 38.69259 18.32149 35147 ft 502 kts 104°
2026-05-04 22:00 38.67091 18.40653 35152 ft 502 kts 104°
2026-05-04 22:01 38.64921 18.49148 35160 ft 503 kts 103°
2026-05-04 22:01 38.62749 18.57642 35156 ft 504 kts 103°
2026-05-04 22:02 38.60563 18.66158 35153 ft 504 kts 103°
2026-05-04 22:02 38.58366 18.74680 35160 ft 504 kts 104°
2026-05-04 22:03 38.56164 18.83195 35160 ft 505 kts 103°
2026-05-04 22:03 38.53970 18.91659 35163 ft 505 kts 103°
2026-05-04 22:04 38.51738 19.00216 35153 ft 505 kts 105°
2026-05-04 22:04 38.49235 19.08555 35164 ft 507 kts 108°
2026-05-04 22:05 38.46538 19.16874 35163 ft 507 kts 108°
2026-05-04 22:05 38.43853 19.25171 35156 ft 507 kts 108°
2026-05-04 22:06 38.41189 19.33502 35160 ft 506 kts 108°
2026-05-04 22:06 38.38543 19.41808 35147 ft 506 kts 108°
2026-05-04 22:07 38.35894 19.50105 35177 ft 506 kts 108°
2026-05-04 22:07 38.33237 19.58398 35168 ft 506 kts 108°
2026-05-04 22:08 38.30572 19.66687 35166 ft 506 kts 108°
2026-05-04 22:08 38.27900 19.74969 35165 ft 506 kts 108°
2026-05-04 22:09 38.25242 19.83190 35181 ft 506 kts 108°
2026-05-04 22:09 38.22557 19.91470 35168 ft 506 kts 108°
2026-05-04 22:10 38.20319 19.98349 35166 ft 507 kts 108°
2026-05-04 22:10 38.17497 20.06998 35170 ft 506 kts 108°
2026-05-04 22:11 38.14796 20.15257 35187 ft 506 kts 109°
2026-05-04 22:11 38.12090 20.23515 35172 ft 506 kts 109°
2026-05-04 22:12 38.09381 20.31750 35169 ft 505 kts 109°
2026-05-04 22:12 38.06671 20.39962 35171 ft 504 kts 109°
2026-05-04 22:13 38.03958 20.48163 35190 ft 504 kts 109°
2026-05-04 22:13 38.01241 20.56351 35172 ft 503 kts 109°
2026-05-04 22:14 37.98522 20.64522 35164 ft 502 kts 110°
2026-05-04 22:14 37.95805 20.72668 35167 ft 501 kts 110°
2026-05-04 22:15 37.93105 20.80738 35193 ft 500 kts 110°
2026-05-04 22:15 37.90382 20.88850 35172 ft 500 kts 110°
2026-05-04 22:16 37.87659 20.96945 35164 ft 500 kts 110°
2026-05-04 22:16 37.84932 21.05034 35174 ft 499 kts 110°
2026-05-04 22:17 37.82201 21.13104 35179 ft 499 kts 110°
2026-05-04 22:17 37.79465 21.21172 35188 ft 499 kts 110°
2026-05-04 22:18 37.76752 21.29147 35181 ft 500 kts 110°
2026-05-04 22:18 37.74010 21.37184 35184 ft 500 kts 110°
2026-05-04 22:19 37.71248 21.45252 35184 ft 500 kts 110°
2026-05-04 22:19 37.68484 21.53316 35181 ft 500 kts 110°
2026-05-04 22:20 37.65715 21.61370 35187 ft 500 kts 110°
2026-05-04 22:20 37.62940 21.69419 35188 ft 500 kts 110°
2026-05-04 22:21 37.60157 21.77469 35184 ft 500 kts 110°
2026-05-04 22:21 37.57369 21.85508 35200 ft 501 kts 110°
2026-05-04 22:22 37.54668 21.93278 35190 ft 501 kts 110°
2026-05-04 22:22 37.51869 22.01308 35198 ft 501 kts 110°
2026-05-04 22:23 37.49056 22.09358 35201 ft 502 kts 110°
2026-05-04 22:23 37.46235 22.17405 35214 ft 502 kts 111°
2026-05-04 22:24 37.43414 22.25440 35211 ft 502 kts 111°
2026-05-04 22:24 37.40588 22.33465 35208 ft 502 kts 111°
2026-05-04 22:25 37.37896 22.41558 35188 ft 501 kts 108°
2026-05-04 22:25 37.35389 22.49671 35176 ft 501 kts 108°
2026-05-04 22:26 37.32846 22.57879 35191 ft 502 kts 108°
2026-05-04 22:26 37.30275 22.66041 35172 ft 503 kts 108°
2026-05-04 22:27 37.27697 22.74140 35159 ft 503 kts 108°
2026-05-04 22:27 37.25091 22.82298 35178 ft 503 kts 109°
2026-05-04 22:28 37.22479 22.90450 35157 ft 503 kts 109°
2026-05-04 22:28 37.19872 22.98572 35148 ft 501 kts 109°
2026-05-04 22:29 37.17263 23.06674 35144 ft 500 kts 109°
2026-05-04 22:29 37.14694 23.14639 35148 ft 499 kts 109°
2026-05-04 22:30 37.12098 23.22661 35142 ft 498 kts 109°
2026-05-04 22:30 37.09496 23.30680 35138 ft 497 kts 109°
2026-05-04 22:31 37.06918 23.38606 35139 ft 497 kts 109°
2026-05-04 22:31 37.04352 23.46476 35143 ft 497 kts 109°
2026-05-04 22:32 37.01726 23.54499 35135 ft 499 kts 109°
2026-05-04 22:32 36.99083 23.62554 35136 ft 501 kts 109°
2026-05-04 22:33 36.96427 23.70627 35134 ft 503 kts 109°
2026-05-04 22:33 36.93756 23.78723 35144 ft 504 kts 109°
2026-05-04 22:34 36.91071 23.86837 35137 ft 505 kts 109°
2026-05-04 22:34 36.88836 23.93577 35130 ft 506 kts 109°
2026-05-04 22:35 36.86157 24.01634 35124 ft 505 kts 109°
2026-05-04 22:35 36.83462 24.09718 35141 ft 504 kts 109°
2026-05-04 22:36 36.80767 24.17778 35124 ft 504 kts 109°
2026-05-04 22:36 36.78066 24.25830 35127 ft 503 kts 109°
2026-05-04 22:37 36.75360 24.33879 35129 ft 502 kts 109°
2026-05-04 22:37 36.72656 24.41904 35135 ft 502 kts 109°
2026-05-04 22:38 36.69943 24.49933 35125 ft 502 kts 109°
2026-05-04 22:38 36.67383 24.57493 35128 ft 502 kts 109°
2026-05-04 22:39 36.64659 24.65509 35122 ft 502 kts 109°
2026-05-04 22:39 36.62093 24.73039 35125 ft 503 kts 109°
2026-05-04 22:40 36.59357 24.81052 35118 ft 503 kts 110°
2026-05-04 22:40 36.56618 24.89051 35118 ft 503 kts 110°
2026-05-04 22:41 36.53890 24.96999 35123 ft 503 kts 110°
2026-05-04 22:41 36.51136 25.05001 35133 ft 504 kts 110°
2026-05-04 22:42 36.48373 25.13004 35123 ft 504 kts 110°
2026-05-04 22:42 36.45606 25.21005 35119 ft 504 kts 110°
2026-05-04 22:43 36.42833 25.28999 35120 ft 504 kts 110°
2026-05-04 22:43 36.40048 25.37003 35149 ft 505 kts 110°
2026-05-04 22:44 36.37262 25.44990 35130 ft 503 kts 110°
2026-05-04 22:44 36.34480 25.52943 35134 ft 501 kts 110°
2026-05-04 22:45 36.31705 25.60856 35122 ft 499 kts 110°
2026-05-04 22:45 36.27577 25.72593 35122 ft 495 kts 111°
2026-05-04 22:46 36.24824 25.80393 35107 ft 492 kts 111°
2026-05-04 22:46 36.22089 25.88122 35107 ft 488 kts 111°
2026-05-04 22:47 36.19488 25.95460 35117 ft 486 kts 111°
2026-05-04 22:47 36.16832 26.02930 35110 ft 484 kts 111°
2026-05-04 22:48 36.14121 26.10540 35091 ft 483 kts 111°
2026-05-04 22:48 36.11395 26.18173 35110 ft 488 kts 111°
2026-05-04 22:49 36.08633 26.25895 35129 ft 494 kts 111°
2026-05-04 22:49 36.06355 26.32241 35105 ft 495 kts 111°
2026-05-04 22:50 36.03560 26.40003 35101 ft 493 kts 111°
2026-05-04 22:50 36.00771 26.47735 35102 ft 492 kts 111°
2026-05-04 22:51 35.97982 26.55449 35093 ft 491 kts 111°
2026-05-04 22:51 35.95359 26.62686 35098 ft 491 kts 111°
2026-05-04 22:52 35.92578 26.70346 35091 ft 491 kts 111°
2026-05-04 22:52 35.89782 26.78025 35091 ft 490 kts 111°
2026-05-04 22:53 35.86998 26.85655 35087 ft 490 kts 111°
2026-05-04 22:53 35.84222 26.93314 35099 ft 490 kts 110°
2026-05-04 22:54 35.81806 27.00371 35086 ft 489 kts 109°
2026-05-04 22:54 35.79197 27.08117 35085 ft 490 kts 109°
2026-05-04 22:55 35.76585 27.15803 35073 ft 490 kts 109°
2026-05-04 22:55 35.73933 27.23539 35085 ft 491 kts 110°
2026-05-04 22:56 35.71270 27.31276 35075 ft 492 kts 110°
2026-05-04 22:56 35.68590 27.39036 35080 ft 493 kts 110°
2026-05-04 22:57 35.65954 27.46654 35083 ft 494 kts 110°
2026-05-04 22:57 35.63320 27.54251 35067 ft 495 kts 110°
2026-05-04 22:58 35.60726 27.61710 35057 ft 495 kts 110°
2026-05-04 22:58 35.58020 27.69475 35059 ft 495 kts 110°
2026-05-04 22:59 35.55306 27.77243 35055 ft 494 kts 110°
2026-05-04 22:59 35.53206 27.83239 35053 ft 494 kts 110°
2026-05-04 23:00 35.50492 27.90976 35049 ft 493 kts 110°
2026-05-04 23:00 35.47778 27.98691 35051 ft 492 kts 110°
2026-05-04 23:01 35.45063 28.06387 35059 ft 491 kts 110°
2026-05-04 23:01 35.42343 28.14081 35035 ft 492 kts 111°
2026-05-04 23:02 35.39616 28.21778 35038 ft 493 kts 111°
2026-05-04 23:02 35.36877 28.29489 35042 ft 494 kts 111°
2026-05-04 23:03 35.34139 28.37175 35049 ft 496 kts 111°
2026-05-04 23:03 35.31384 28.44896 35033 ft 498 kts 111°
2026-05-04 23:04 35.28599 28.52673 35026 ft 499 kts 111°
2026-05-04 23:04 35.25819 28.60419 35022 ft 499 kts 111°
2026-05-04 23:05 35.23023 28.68192 35022 ft 499 kts 112°
2026-05-04 23:05 35.20247 28.75893 35013 ft 499 kts 112°
2026-05-04 23:06 35.17444 28.83644 35010 ft 498 kts 112°
2026-05-04 23:06 35.14641 28.91381 35002 ft 497 kts 112°
2026-05-04 23:07 35.11841 28.99090 35012 ft 496 kts 112°
2026-05-04 23:07 35.09036 29.06795 34997 ft 496 kts 112°
2026-05-04 23:08 35.06240 29.14456 34994 ft 495 kts 112°
2026-05-04 23:08 35.03436 29.22121 34994 ft 494 kts 112°
2026-05-04 23:09 35.00651 29.29721 34995 ft 494 kts 112°
2026-05-04 23:09 34.97865 29.37385 34983 ft 494 kts 112°
2026-05-04 23:10 34.95179 29.45083 34987 ft 493 kts 111°
2026-05-04 23:10 34.92503 29.52783 34988 ft 493 kts 111°
2026-05-04 23:11 34.89806 29.60470 34976 ft 494 kts 112°
2026-05-04 23:11 34.87092 29.68163 34980 ft 495 kts 112°
2026-05-04 23:12 34.84388 29.75812 34980 ft 495 kts 112°
2026-05-04 23:12 34.81659 29.83515 34987 ft 496 kts 112°
2026-05-04 23:13 34.78929 29.91208 34975 ft 497 kts 112°
2026-05-04 23:13 34.76181 29.98921 34971 ft 498 kts 113°
2026-05-04 23:14 34.72836 30.06289 34972 ft 498 kts 122°
2026-05-04 23:14 34.69118 30.13393 34975 ft 498 kts 123°
2026-05-04 23:15 34.65400 30.20492 34958 ft 499 kts 122°
2026-05-04 23:15 34.61729 30.27620 34967 ft 499 kts 122°
2026-05-04 23:16 34.58066 30.34787 34973 ft 500 kts 122°
2026-05-04 23:16 34.54395 30.41966 34972 ft 502 kts 123°
2026-05-04 23:17 34.50710 30.49149 34972 ft 503 kts 123°
2026-05-04 23:17 34.47001 30.56361 34962 ft 504 kts 123°
2026-05-04 23:18 34.43330 30.63482 34959 ft 504 kts 123°
2026-05-04 23:18 34.39603 30.70699 34959 ft 504 kts 123°
2026-05-04 23:19 34.35882 30.77890 34953 ft 504 kts 123°
2026-05-04 23:19 34.32200 30.84991 34956 ft 503 kts 123°
2026-05-04 23:20 34.28481 30.92151 34955 ft 502 kts 123°
2026-05-04 23:20 34.24761 30.99294 34953 ft 502 kts 124°
2026-05-04 23:21 34.21037 31.06432 34955 ft 501 kts 124°
2026-05-04 23:21 34.17317 31.13550 34953 ft 501 kts 124°
2026-05-04 23:22 34.13590 31.20668 34953 ft 501 kts 124°
2026-05-04 23:22 34.09857 31.27782 34948 ft 502 kts 125°
2026-05-04 23:23 34.06118 31.34889 34955 ft 502 kts 125°
2026-05-04 23:23 34.02372 31.41999 34955 ft 503 kts 125°
2026-05-04 23:24 33.99251 31.47911 34959 ft 503 kts 125°
2026-05-04 23:24 33.95490 31.55024 34954 ft 504 kts 125°
2026-05-04 23:25 33.91716 31.62149 34957 ft 505 kts 125°
2026-05-04 23:25 33.87931 31.69278 34963 ft 507 kts 126°
2026-05-04 23:26 33.84131 31.76421 34960 ft 507 kts 126°
2026-05-04 23:26 33.80319 31.83574 34953 ft 508 kts 126°
2026-05-04 23:27 33.76535 31.90663 34959 ft 507 kts 126°
2026-05-04 23:27 33.72721 31.97790 34959 ft 507 kts 126°
2026-05-04 23:28 33.68903 32.04912 34932 ft 507 kts 126°
2026-05-04 23:28 33.65094 32.12003 34958 ft 507 kts 127°
2026-05-04 23:29 33.61273 32.19101 34973 ft 507 kts 127°
2026-05-04 23:29 33.57438 32.26213 34972 ft 508 kts 127°
2026-05-04 23:30 33.53634 32.33254 34969 ft 509 kts 127°
2026-05-04 23:30 33.49810 32.40320 34970 ft 509 kts 128°
2026-05-04 23:31 33.45972 32.47395 34975 ft 510 kts 128°
2026-05-04 23:31 33.42119 32.54489 34836 ft 504 kts 128°
2026-05-04 23:32 33.40214 32.57994 34447 ft 497 kts 128°
2026-05-04 23:32 33.38343 32.61435 34529 ft 493 kts 128°
2026-05-04 23:32 33.34560 32.68360 34513 ft 501 kts 129°
2026-05-04 23:33 33.30719 32.75377 34529 ft 508 kts 129°
2026-05-04 23:33 33.26824 32.82484 34534 ft 513 kts 129°
2026-05-04 23:34 33.22913 32.89619 34309 ft 515 kts 129°
2026-05-04 23:34 33.20948 32.93198 34051 ft 515 kts 129°
2026-05-04 23:34 33.18993 32.96757 33763 ft 513 kts 129°
2026-05-04 23:35 33.17032 33.00320 32875 ft 515 kts 130°
2026-05-04 23:35 33.15061 33.03893 32115 ft 515 kts 130°
2026-05-04 23:35 33.13088 33.07466 31273 ft 517 kts 130°
2026-05-04 23:35 33.11121 33.11030 30435 ft 517 kts 130°
2026-05-04 23:36 33.09132 33.14627 29422 ft 520 kts 130°
2026-05-04 23:36 33.07139 33.18230 28549 ft 519 kts 130°
2026-05-04 23:36 33.05197 33.21744 27934 ft 511 kts 130°
2026-05-04 23:36 33.03221 33.25318 27266 ft 507 kts 130°
2026-05-04 23:37 33.01294 33.28799 26635 ft 501 kts 130°
2026-05-04 23:37 32.99405 33.32203 26021 ft 497 kts 130°
2026-05-04 23:37 32.97481 33.35663 25400 ft 492 kts 130°
2026-05-04 23:37 32.95622 33.39003 24793 ft 489 kts 130°
2026-05-04 23:38 32.93724 33.42410 24168 ft 485 kts 130°
2026-05-04 23:38 32.91867 33.45739 23547 ft 483 kts 130°
2026-05-04 23:38 32.90011 33.49065 22832 ft 480 kts 130°
2026-05-04 23:38 32.88186 33.52333 22196 ft 475 kts 129°
2026-05-04 23:39 32.86979 33.54495 21823 ft 471 kts 129°